When you browse on this site, cookies collect data to enhance your experience and personalize the content and advertising you see.
Visit our Privacy Policy to learn more. By continuing to use the site, you agree to this use of cookies and data.
  • în România
  • Lista ţărilor
  • Pe 7 zile
  • Temperatura apei
  • Hartă satelitară
  • Meteo pe hartă
  • Widget-uri
  • user-avatar
    Intrare

    Meteo pe oră la Polyanskoe

    Astăzi, 23 Februarie, Sâmbătă

    Timp Temperatura Precipitaţii Vânt Presiune Umiditate
    00:00 -14°C° 0 mm 5 m/s 741 mmHg 94%
    01:00 -14°C° 0 mm 4 m/s 742 mmHg 94%
    02:00 -12°C° 0 mm 4 m/s 743 mmHg 95%
    03:00 -14°C° 0 mm 4 m/s 743 mmHg 94%
    04:00 -14°C° 0 mm 3 m/s 744 mmHg 95%
    05:00 -14°C° 0 mm 3 m/s 744 mmHg 95%
    06:00 -15°C° 0 mm 3 m/s 745 mmHg 96%
    07:00 -15°C° 0 mm 3 m/s 745 mmHg 95%
    08:00 -15°C° 0 mm 3 m/s 746 mmHg 95%
    09:00 -15°C° 0 mm 3 m/s 747 mmHg 94%
    10:00 -14°C° 0 mm 3 m/s 747 mmHg 93%
    11:00 -12°C° 0 mm 3 m/s 748 mmHg 92%
    12:00 -10°C° 0 mm 3 m/s 748 mmHg 91%
    13:00 -10°C° 0 mm 3 m/s 748 mmHg 90%
    14:00 -10°C° 0 mm 3 m/s 749 mmHg 89%
    15:00 -10°C° 0 mm 3 m/s 749 mmHg 88%
    16:00 -10°C° 0 mm 3 m/s 749 mmHg 90%
    17:00 -12°C° 0 mm 3 m/s 749 mmHg 91%
    18:00 -12°C° 0 mm 2 m/s 749 mmHg 93%
    19:00 -13°C° 0 mm 2 m/s 749 mmHg 93%
    20:00 -13°C° 0 mm 2 m/s 750 mmHg 94%
    21:00 -14°C° 0 mm 2 m/s 750 mmHg 95%
    22:00 -15°C° 0 mm 2 m/s 750 mmHg 95%
    23:00 -16°C° 0 mm 2 m/s 750 mmHg 95%

    Mâine, 24 Februarie, Duminică

    Timp Temperatura Precipitaţii Vânt Presiune Umiditate
    00:00 -17°C° 0 mm 2 m/s 750 mmHg 95%
    01:00 -17°C° 0 mm 2 m/s 750 mmHg 95%
    02:00 -18°C° 0 mm 2 m/s 750 mmHg 95%
    03:00 -18°C° 0 mm 2 m/s 750 mmHg 96%
    04:00 -19°C° 0 mm 2 m/s 750 mmHg 96%
    05:00 -19°C° 0 mm 2 m/s 750 mmHg 97%
    06:00 -20°C° 0 mm 2 m/s 749 mmHg 98%
    07:00 -19°C° 0 mm 2 m/s 750 mmHg 97%
    08:00 -18°C° 0 mm 2 m/s 750 mmHg 97%
    09:00 -18°C° 0 mm 2 m/s 750 mmHg 96%
    10:00 -16°C° 0 mm 2 m/s 750 mmHg 94%
    11:00 -15°C° 0 mm 2 m/s 750 mmHg 91%
    12:00 -14°C° 0 mm 2 m/s 749 mmHg 89%
    13:00 -13°C° 0 mm 2 m/s 749 mmHg 89%
    14:00 -14°C° 0 mm 3 m/s 749 mmHg 88%
    15:00 -13°C° 0 mm 3 m/s 748 mmHg 88%
    16:00 -15°C° 0 mm 3 m/s 748 mmHg 89%
    17:00 -16°C° 0 mm 3 m/s 748 mmHg 89%
    18:00 -17°C° 0 mm 3 m/s 748 mmHg 90%
    19:00 -17°C° 0 mm 3 m/s 747 mmHg 91%
    20:00 -17°C° 0 mm 3 m/s 747 mmHg 92%
    21:00 -17°C° 0 mm 3 m/s 747 mmHg 93%
    22:00 -16°C° 0 mm 3 m/s 747 mmHg 94%
    23:00 -16°C° 0 mm 3 m/s 746 mmHg 95%

    Poimâine, 25 Februarie, Luni

    Timp Temperatura Precipitaţii Vânt Presiune Umiditate
    00:00 -15°C° 0 mm 3 m/s 746 mmHg 96%
    01:00 -14°C° 0 mm 3 m/s 745 mmHg 96%
    02:00 -14°C° 0 mm 3 m/s 745 mmHg 96%
    03:00 -13°C° 0 mm 3 m/s 745 mmHg 96%
    04:00 -13°C° 0 mm 3 m/s 744 mmHg 96%
    05:00 -13°C° 0 mm 3 m/s 743 mmHg 97%
    06:00 -12°C° 0 mm 3 m/s 743 mmHg 97%
    07:00 -12°C° 0 mm 3 m/s 742 mmHg 96%
    08:00 -11°C° 0 mm 4 m/s 742 mmHg 96%
    09:00 -10°C° 0 mm 4 m/s 742 mmHg 96%
    10:00 -9°C° 0 mm 4 m/s 741 mmHg 95%
    11:00 -8°C° 0 mm 5 m/s 740 mmHg 95%
    12:00 -7°C° 0 mm 5 m/s 739 mmHg 95%
    13:00 -7°C° 0.2 mm 5 m/s 739 mmHg 95%
    14:00 -6°C° 0.2 mm 5 m/s 738 mmHg 94%
    15:00 -5°C° 0.2 mm 6 m/s 737 mmHg 94%
    16:00 -5°C° 0.2 mm 5 m/s 736 mmHg 94%
    17:00 -5°C° 0.2 mm 5 m/s 736 mmHg 94%
    18:00 -4°C° 0.2 mm 5 m/s 735 mmHg 94%
    19:00 -4°C° 0.3 mm 5 m/s 734 mmHg 94%
    20:00 -4°C° 0.3 mm 5 m/s 734 mmHg 94%
    21:00 -4°C° 0.3 mm 5 m/s 733 mmHg 95%
    22:00 -3°C° 0.1 mm 4 m/s 733 mmHg 95%
    23:00 -3°C° 0.1 mm 4 m/s 732 mmHg 95%

    26 Februarie, Marţi

    Timp Temperatura Precipitaţii Vânt Presiune Umiditate
    00:00 -3°C° 0.1 mm 4 m/s 732 mmHg 96%
    01:00 -2°C° 0 mm 3 m/s 731 mmHg 96%
    02:00 -2°C° 0 mm 3 m/s 731 mmHg 96%
    03:00 -2°C° 0 mm 3 m/s 730 mmHg 96%
    04:00 -4°C° 0 mm 3 m/s 730 mmHg 96%
    05:00 -4°C° 0 mm 3 m/s 730 mmHg 96%
    06:00 -5°C° 0 mm 3 m/s 729 mmHg 96%
    07:00 -4°C° 0.1 mm 3 m/s 729 mmHg 96%
    08:00 -4°C° 0.1 mm 3 m/s 729 mmHg 96%
    09:00 -3°C° 0.1 mm 2 m/s 729 mmHg 96%
    10:00 -2°C° 0.1 mm 2 m/s 728 mmHg 97%
    11:00 -2°C° 0.1 mm 2 m/s 728 mmHg 97%
    12:00 -2°C° 0.1 mm 2 m/s 728 mmHg 98%
    13:00 -2°C° 0.1 mm 2 m/s 728 mmHg 97%
    14:00 -1°C° 0.1 mm 2 m/s 727 mmHg 96%
    15:00 -1°C° 0.1 mm 2 m/s 727 mmHg 96%
    16:00 -2°C° 0.1 mm 2 m/s 727 mmHg 95%
    17:00 -2°C° 0.1 mm 2 m/s 727 mmHg 95%
    18:00 -3°C° 0.1 mm 2 m/s 727 mmHg 95%
    19:00 -4°C° 0.1 mm 2 m/s 727 mmHg 95%
    20:00 -4°C° 0.1 mm 2 m/s 727 mmHg 96%
    21:00 -5°C° 0.1 mm 2 m/s 727 mmHg 96%
    22:00 -6°C° 0 mm 2 m/s 727 mmHg 96%
    23:00 -6°C° 0 mm 2 m/s 728 mmHg 96%

    27 Februarie, Miercuri

    Timp Temperatura Precipitaţii Vânt Presiune Umiditate
    00:00 -7°C° 0 mm 2 m/s 728 mmHg 96%
    01:00 -7°C° 0 mm 2 m/s 728 mmHg 96%
    02:00 -8°C° 0 mm 2 m/s 728 mmHg 95%
    03:00 -8°C° 0 mm 2 m/s 728 mmHg 95%
    04:00 -8°C° 0 mm 2 m/s 728 mmHg 95%
    05:00 -9°C° 0 mm 3 m/s 729 mmHg 95%
    06:00 -10°C° 0 mm 3 m/s 729 mmHg 95%
    07:00 -9°C° 0 mm 3 m/s 729 mmHg 95%
    08:00 -9°C° 0 mm 3 m/s 729 mmHg 95%
    09:00 -9°C° 0 mm 3 m/s 730 mmHg 95%
    10:00 -8°C° 0 mm 3 m/s 730 mmHg 95%
    11:00 -6°C° 0 mm 3 m/s 730 mmHg 94%
    12:00 -5°C° 0 mm 4 m/s 730 mmHg 94%
    13:00 -5°C° 0 mm 4 m/s 730 mmHg 92%
    14:00 -5°C° 0 mm 4 m/s 730 mmHg 90%
    15:00 -4°C° 0 mm 4 m/s 730 mmHg 89%
    16:00 -5°C° 0.1 mm 4 m/s 730 mmHg 90%
    17:00 -5°C° 0.1 mm 3 m/s 730 mmHg 91%
    18:00 -6°C° 0.1 mm 3 m/s 730 mmHg 93%
    19:00 -7°C° 0 mm 3 m/s 730 mmHg 93%
    20:00 -8°C° 0 mm 3 m/s 729 mmHg 94%
    21:00 -9°C° 0 mm 3 m/s 729 mmHg 95%
    22:00 -9°C° 0 mm 3 m/s 729 mmHg 95%
    23:00 -8°C° 0 mm 2 m/s 729 mmHg 96%

    28 Februarie, Joi

    Timp Temperatura Precipitaţii Vânt Presiune Umiditate
    00:00 -7°C° 0 mm 2 m/s 728 mmHg 96%
    01:00 -7°C° 0.1 mm 2 m/s 728 mmHg 96%
    02:00 -7°C° 0.1 mm 3 m/s 728 mmHg 96%
    03:00 -7°C° 0.1 mm 3 m/s 728 mmHg 96%
    04:00 -7°C° 0.1 mm 3 m/s 727 mmHg 96%
    05:00 -8°C° 0.1 mm 3 m/s 727 mmHg 96%
    06:00 -8°C° 0.1 mm 3 m/s 727 mmHg 96%
    07:00 -9°C° 0.1 mm 4 m/s 727 mmHg 95%
    08:00 -9°C° 0.1 mm 4 m/s 727 mmHg 95%
    09:00 -10°C° 0.1 mm 4 m/s 727 mmHg 94%
    10:00 -9°C° 0 mm 4 m/s 727 mmHg 93%
    11:00 -9°C° 0 mm 4 m/s 727 mmHg 91%
    12:00 -9°C° 0 mm 4 m/s 727 mmHg 89%
    13:00 -9°C° 0 mm 4 m/s 726 mmHg 89%
    14:00 -9°C° 0 mm 4 m/s 726 mmHg 89%
    15:00 -9°C° 0 mm 4 m/s 726 mmHg 88%
    16:00 -8°C° 0 mm 3 m/s 726 mmHg 90%
    17:00 -8°C° 0 mm 3 m/s 726 mmHg 92%
    18:00 -7°C° 0 mm 2 m/s 726 mmHg 93%
    19:00 -7°C° 0 mm 2 m/s 726 mmHg 94%
    20:00 -8°C° 0 mm 3 m/s 726 mmHg 95%
    21:00 -7°C° 0 mm 3 m/s 726 mmHg 96%
    22:00 -7°C° 0.1 mm 3 m/s 725 mmHg 96%
    23:00 -6°C° 0.1 mm 3 m/s 725 mmHg 96%
    Arată mai mult